Zurück zum Katalog

THORAD DELTA 1 DEB

AktivSSO
NORAD 8566·DEBRIS·🇺🇸 United States

Gestartet Nov 15, 1974 von Vandenberg Space Force Base

Loading…

Nächste Überflüge (nächste 24 Stunden)

TLE

AktuellSource: Space-Track

Epoche: Sep 13, 2026, 16:53 UTC

1 08566U 74089DD  26256.70349080 -.00000162  00000-0 -60669-3 0  9996
2 08566 101.3623 332.2401 0086768 248.0927 267.5597 12.67025188310066

Verfolge THORAD DELTA 1 DEB in Echtzeit mit AllMySat

Download on the App Store